Weather History for Laredo, TX

Change the Weather History Date:

Monday, November 5, 2012

  Actual Average Record
Temperature  
Mean Temperature 76 °F 70 °F  
Max Temperature 90 °F 80 °F 97 °F (1924)
Min Temperature 62 °F 59 °F 35 °F (1908)
Degree Days  
Heating Degree Days 0 2  
Month to date heating degree days 0 7  
Since 1 July heating degree days 13 19  
Cooling Degree Days 11 6  
Month to date cooling degree days 68 34  
Year to date cooling degree days 4939 4163  
Growing Degree Days 26 (Base 50)    
Moisture  
Dew Point 60 °F    
Average Humidity 60    
Maximum Humidity 87    
Minimum Humidity 38    
Precipitation  
Precipitation 0.00 in 0.04 in 2.50 in (1925)
Month to date precipitation 0.00 0.25  
Year to date precipitation 8.79 18.38  
Sea Level Pressure  
Sea Level Pressure 30.01 in    
Wind  
Wind Speed 3 mph (SSE)    
Max Wind Speed 8 mph    
Max Gust Speed 10 mph    
Visibility 10 miles    
Events      
T = Trace of Precipitation, MM = Missing Value Source: NWS Daily Summary

Daily Weather History Graph

Daily Weather History Graph

Search for Another Location

Airport:

Trip Planner

Search our weather history database for the weather conditions in past years. The results will help you decide how hot, cold, wet, or windy it might be!

Date:

Astronomy

Nov. 05, 2012 Rise Set
Actual Time 6:51 AM CST 5:50 PM CST
Civil Twilight 6:27 AM CST 6:15 PM CST
Nautical Twilight 5:59 AM CST 6:43 PM CST
Astronomical Twilight 5:31 AM CST 7:10 PM CST
Moon 11:29 PM CST (11/5) 12:11 PM CST (11/5)
Length of Visible Light 11h 47m
Length of Day
10h 59m
Waning Gibbous, 62% of the Moon is Illuminated
Nov 5
Waning Gibbous
Nov 6
Last Quarter
Nov 13
New
Nov 20
First Quarter
Nov 28
Full

Hourly Weather History & Observations

Time (CST) Temp. Heat Index Dew Point Humidity Pressure Visibility Wind Dir Wind Speed Gust Speed Precip Events Conditions
12:56 AM 68.9 °F - 59.9 °F 73% 30.07 in 10.0 mi South 4.6 mph - N/A   Clear
1:56 AM 68.0 °F - 59.9 °F 75% 30.06 in 10.0 mi ESE 4.6 mph - N/A   Clear
2:56 AM 65.8 °F - 59.9 °F 81% 30.04 in 10.0 mi East 3.5 mph - N/A   Clear
3:56 AM 64.9 °F - 59.9 °F 84% 30.03 in 10.0 mi East 4.6 mph - N/A   Clear
4:56 AM 65.8 °F - 59.9 °F 81% 30.03 in 10.0 mi Calm Calm - N/A   Clear
5:56 AM 63.9 °F - 59.0 °F 84% 30.03 in 10.0 mi Calm Calm - N/A   Clear
6:56 AM 63.9 °F - 59.9 °F 87% 30.03 in 10.0 mi Calm Calm - N/A   Clear
7:56 AM 68.0 °F - 61.9 °F 81% 30.05 in 10.0 mi Calm Calm - N/A   Clear
8:56 AM 73.9 °F - 61.9 °F 66% 30.08 in 10.0 mi WSW 4.6 mph - N/A   Clear
9:56 AM 77.9 °F - 63.0 °F 60% 30.08 in 10.0 mi WNW 4.6 mph - N/A   Clear
10:56 AM 81.9 °F 83.2 °F 63.9 °F 54% 30.07 in 10.0 mi Variable 4.6 mph - N/A   Clear
11:56 AM 83.8 °F 85.1 °F 63.9 °F 51% 30.05 in 10.0 mi South 5.8 mph - N/A   Clear
12:56 PM 86.9 °F 87.8 °F 63.0 °F 45% 30.01 in 10.0 mi WSW 6.9 mph - N/A   Clear
1:56 PM 88.9 °F 89.7 °F 63.0 °F 42% 29.97 in 10.0 mi Variable 3.5 mph - 0.00 in   Clear
2:56 PM 88.0 °F 88.1 °F 61.9 °F 41% 29.95 in 10.0 mi Calm Calm - N/A   Clear
3:56 PM 88.9 °F 88.8 °F 61.0 °F 39% 29.94 in 10.0 mi Calm Calm - N/A   Clear
4:56 PM 88.9 °F 88.0 °F 59.0 °F 36% 29.94 in 10.0 mi South 4.6 mph - N/A   Clear
5:56 PM 86.0 °F 85.4 °F 59.0 °F 40% 29.95 in 10.0 mi Calm Calm - N/A   Clear
6:56 PM 82.9 °F 82.6 °F 57.9 °F 42% 29.97 in 10.0 mi East 3.5 mph - N/A   Clear
7:56 PM 77.9 °F - 57.9 °F 50% 29.99 in 10.0 mi Calm Calm - N/A   Clear
8:56 PM 75.9 °F - 59.0 °F 56% 29.99 in 10.0 mi SSE 3.5 mph - N/A   Clear
9:56 PM 74.8 °F - 59.0 °F 58% 30.00 in 10.0 mi Calm Calm - N/A   Clear
10:56 PM 72.9 °F - 57.9 °F 59% 30.00 in 10.0 mi ESE 4.6 mph - N/A   Clear
11:56 PM 72.9 °F - 59.9 °F 64% 30.00 in 10.0 mi South 5.8 mph - N/A   Clear